GFSFLT2_prec_pwat_141.txt.gz
Precipitable_Water
1.39 1.29 1.22 1.18 1.14 1.09 1.03 1.02 1.04 1.03 1.12 1.16 1.15 1.19 1.23 1.27 1.30 1.32 1.31 1.30 1.32 1.37 1.44 1.51 1.61 1.69 1.67 1.56 1.52 1.53 1.81 1.64
1.40 1.30 1.22 1.18 1.13 1.05 1.03 1.02 1.05 1.08 1.09 1.22 1.21 1.21 1.22 1.21 1.27 1.29 1.30 1.29 1.32 1.37 1.41 1.52 1.64 1.69 1.65 1.56 1.56 1.58 1.71 1.65
1.49 1.30 1.26 1.18 1.12 1.11 1.02 1.03 1.05 1.10 1.14 1.17 1.25 1.23 1.20 1.20 1.22 1.26 1.26 1.28 1.31 1.33 1.41 1.54 1.62 1.67 1.62 1.60 1.63 1.58 1.73 1.66
1.42 1.39 1.24 1.19 1.06 1.10 1.04 1.09 1.10 1.14 1.16 1.22 1.20 1.26 1.22 1.22 1.21 1.23 1.23 1.26 1.28 1.29 1.39 1.53 1.58 1.60 1.57 1.58 1.55 1.74 1.47 1.59
1.34 1.41 1.31 1.22 1.09 1.05 1.00 1.08 1.13 1.15 1.18 1.22 1.22 1.21 1.31 1.23 1.22 1.18 1.20 1.23 1.24 1.25 1.39 1.53 1.53 1.62 1.54 1.51 1.53 1.57 1.64 1.69
0.73 1.40 1.39 1.28 1.14 1.10 1.05 1.04 1.08 1.17 1.21 1.24 1.20 1.21 1.23 1.22 1.20 1.14 1.14 1.17 1.21 1.25 1.34 1.48 1.54 1.64 1.58 1.46 1.53 1.57 1.56 1.68
0.48 0.70 1.37 1.38 1.25 1.12 1.11 1.10 1.06 1.08 1.18 1.27 1.21 1.17 1.21 1.15 1.18 1.17 1.11 1.17 1.23 1.24 1.34 1.43 1.55 1.54 1.56 1.56 1.57 1.59 1.56 1.68
0.35 0.47 0.63 1.34 1.34 1.19 1.11 1.15 1.14 1.11 1.09 1.16 1.21 1.20 1.18 1.15 1.14 1.13 1.12 1.14 1.20 1.23 1.35 1.46 1.54 1.48 1.52 1.58 1.49 1.60 1.55 1.65
0.28 0.32 0.42 0.59 1.29 1.37 1.20 1.14 1.16 1.13 1.08 1.12 1.15 1.21 1.17 1.18 1.14 1.08 1.11 1.14 1.16 1.19 1.31 1.43 1.48 1.48 1.46 1.46 1.45 1.49 1.50 1.61
0.44 0.40 0.32 0.40 0.58 1.25 1.36 1.22 1.16 1.15 1.16 1.12 1.10 1.18 1.18 1.17 1.13 1.10 1.12 1.17 1.13 1.12 1.22 1.27 1.38 1.38 1.33 1.33 1.41 1.49 1.55 1.56
0.53 0.52 0.47 0.36 0.38 0.68 1.30 1.39 1.24 1.14 1.19 1.16 1.10 1.10 1.18 1.15 1.11 1.11 1.12 1.13 1.17 1.10 1.12 1.20 1.23 1.27 1.26 1.37 1.35 1.35 1.43 1.50
0.51 0.57 0.55 0.47 0.37 0.39 0.75 1.28 1.38 1.25 1.15 1.23 1.18 1.09 1.12 1.15 1.11 1.09 1.10 1.09 1.14 1.15 1.11 1.11 1.14 1.15 1.19 1.19 1.28 1.32 1.39 1.43
0.53 0.52 0.56 0.64 0.45 0.33 0.33 0.85 1.23 1.39 1.25 1.20 1.23 1.13 1.12 1.12 1.08 1.09 1.06 1.03 1.07 1.15 1.10 1.06 1.05 1.12 1.09 1.05 1.11 1.18 1.23 1.25
0.57 0.54 0.58 0.66 0.66 0.44 0.34 0.36 1.08 1.32 1.40 1.25 1.24 1.17 1.15 1.14 1.09 1.07 1.06 1.03 1.05 1.10 1.05 1.01 1.06 1.12 1.01 0.96 0.80 0.93 1.07 1.14
0.58 0.60 0.62 0.72 0.75 0.58 0.39 0.33 0.60 1.22 1.37 1.36 1.29 1.26 1.31 1.29 1.18 1.11 1.05 1.04 1.00 1.03 1.03 1.00 0.93 1.08 1.13 0.98 0.82 0.75 0.87 1.01
0.60 0.64 0.68 0.75 0.80 0.73 0.40 0.31 0.33 0.94 1.35 1.46 1.40 1.33 1.36 1.36 1.33 1.18 1.09 1.03 1.03 1.02 1.06 1.05 1.05 0.94 1.08 1.11 1.08 1.02 0.86 0.82
0.64 0.68 0.67 0.70 0.80 0.82 0.52 0.37 0.35 0.70 1.19 1.46 1.56 1.42 1.41 1.31 1.37 1.30 1.13 1.03 1.03 1.03 1.03 1.07 1.07 1.00 0.97 1.01 1.03 1.05 1.03 0.92
0.68 0.67 0.64 0.68 0.72 0.78 0.60 0.37 0.42 0.69 0.95 1.27 1.54 1.50 1.40 1.28 1.30 1.37 1.23 1.07 1.02 1.04 1.06 1.11 1.06 1.06 1.04 1.05 1.00 0.96 0.94 0.93
0.62 0.62 0.62 0.69 0.75 0.69 0.58 0.48 0.41 0.84 0.81 1.13 1.35 1.54 1.42 1.27 1.27 1.31 1.26 1.14 1.10 1.13 1.11 1.12 1.12 1.06 1.08 1.05 1.09 1.07 1.07 1.00
0.62 0.65 0.66 0.59 0.71 0.57 0.54 0.51 0.41 0.91 0.93 1.08 1.18 1.22 1.19 1.46 1.33 1.35 1.34 1.25 1.17 1.19 1.17 1.15 1.19 1.18 1.11 1.14 1.11 1.12 1.12 1.09

GFSFLT2_prec_pwat_144.txt.gz
Precipitable_Water
1.60 1.45 1.29 1.24 1.21 1.16 1.11 1.05 1.02 1.03 1.07 1.13 1.18 1.19 1.24 1.23 1.23 1.28 1.30 1.30 1.35 1.38 1.42 1.43 1.49 1.58 1.64 1.66 1.61 1.64 1.71 1.52
1.52 1.64 1.38 1.26 1.21 1.16 1.10 1.04 1.00 1.00 1.02 1.11 1.15 1.22 1.22 1.29 1.28 1.25 1.24 1.27 1.31 1.34 1.40 1.42 1.48 1.57 1.66 1.59 1.48 1.53 1.68 1.77
1.37 1.57 1.61 1.37 1.28 1.18 1.09 1.03 0.97 0.98 1.01 1.05 1.13 1.19 1.23 1.19 1.24 1.27 1.25 1.24 1.28 1.32 1.38 1.40 1.48 1.55 1.62 1.58 1.53 1.48 1.60 1.75
1.29 1.46 1.57 1.54 1.35 1.32 1.16 1.08 0.98 0.94 1.02 1.07 1.11 1.14 1.21 1.19 1.18 1.20 1.28 1.23 1.23 1.28 1.29 1.39 1.49 1.52 1.55 1.52 1.46 1.53 1.62 1.89
0.68 1.14 1.52 1.57 1.45 1.27 1.19 1.13 1.06 0.98 1.00 1.11 1.11 1.14 1.19 1.20 1.21 1.16 1.19 1.22 1.21 1.21 1.22 1.27 1.44 1.52 1.52 1.44 1.48 1.53 1.50 1.92
0.47 0.64 0.94 1.55 1.55 1.41 1.26 1.09 1.13 1.08 1.01 1.02 1.15 1.10 1.11 1.19 1.12 1.18 1.14 1.15 1.14 1.17 1.17 1.23 1.40 1.50 1.58 1.48 1.50 1.53 1.57 1.57
0.35 0.43 0.60 0.85 1.39 1.55 1.43 1.24 1.20 1.14 1.20 1.09 1.07 1.10 1.08 1.13 1.15 1.20 1.09 1.13 1.09 1.17 1.18 1.20 1.35 1.49 1.60 1.49 1.45 1.45 1.58 1.63
0.49 0.48 0.52 0.55 0.73 0.99 1.54 1.45 1.29 1.21 1.18 1.23 1.13 1.08 1.09 1.08 1.13 1.19 1.10 1.16 1.17 1.18 1.21 1.24 1.32 1.52 1.48 1.49 1.45 1.49 1.56 1.55
0.57 0.59 0.59 0.57 0.60 0.71 0.86 1.53 1.46 1.30 1.20 1.16 1.22 1.13 1.10 1.11 1.12 1.16 1.13 1.11 1.17 1.23 1.18 1.30 1.35 1.44 1.41 1.44 1.46 1.50 1.51 1.48
0.57 0.55 0.54 0.54 0.57 0.55 0.69 0.81 1.52 1.43 1.32 1.22 1.14 1.15 1.12 1.15 1.12 1.10 1.13 1.14 1.14 1.14 1.09 1.16 1.28 1.37 1.40 1.42 1.37 1.41 1.41 1.46
0.48 0.50 0.51 0.54 0.55 0.58 0.59 0.60 0.81 1.49 1.45 1.32 1.19 1.10 1.14 1.18 1.08 1.11 1.09 1.16 1.11 1.08 1.05 1.11 1.16 1.27 1.36 1.40 1.32 1.35 1.42 1.45
0.44 0.42 0.45 0.48 0.51 0.53 0.60 0.55 0.55 0.87 1.56 1.40 1.34 1.18 1.08 1.15 1.15 1.10 1.12 1.12 1.12 1.08 1.03 1.09 1.13 1.13 1.22 1.26 1.36 1.37 1.37 1.43
0.48 0.46 0.49 0.52 0.49 0.45 0.54 0.59 0.52 0.53 1.01 1.50 1.48 1.33 1.16 1.07 1.15 1.10 1.10 1.06 1.08 1.12 1.05 1.05 1.09 1.16 1.08 1.10 1.18 1.20 1.24 1.32
0.47 0.49 0.52 0.54 0.55 0.56 0.57 0.61 0.62 0.51 0.49 1.08 1.67 1.50 1.27 1.12 1.06 1.09 1.06 1.04 1.07 1.10 1.03 0.99 1.06 1.13 0.96 0.94 0.80 0.92 1.04 1.15
0.48 0.49 0.52 0.57 0.60 0.59 0.57 0.63 0.69 0.56 0.40 0.61 1.06 1.75 1.43 1.24 1.10 1.09 1.08 1.03 1.01 1.04 1.05 0.96 0.90 1.07 1.08 0.91 0.77 0.70 0.85 1.00
0.50 0.50 0.54 0.60 0.66 0.64 0.63 0.60 0.59 0.63 0.50 0.38 0.76 1.11 1.70 1.20 1.17 1.09 1.11 1.07 1.03 1.03 1.08 1.00 0.95 0.89 1.05 1.05 1.00 0.93 0.80 0.82
0.51 0.53 0.60 0.66 0.63 0.63 0.66 0.66 0.71 0.77 0.70 0.42 0.50 0.74 1.45 1.51 1.33 1.11 1.13 1.13 1.05 1.02 1.04 1.02 0.97 0.94 0.92 0.96 1.00 1.00 1.05 0.92
0.52 0.57 0.65 0.64 0.60 0.62 0.64 0.65 0.70 0.79 0.71 0.50 0.53 0.55 1.10 1.73 1.57 1.25 1.25 1.24 1.15 1.04 1.01 1.00 0.99 0.99 0.98 0.98 0.94 0.92 0.92 0.92
0.56 0.62 0.62 0.61 0.61 0.63 0.68 0.71 0.74 0.76 0.76 0.48 0.55 0.70 0.65 1.22 1.51 1.49 1.36 1.33 1.25 1.16 1.04 0.98 0.99 0.97 0.95 0.95 1.00 0.99 1.04 0.98
0.60 0.64 0.62 0.62 0.64 0.58 0.60 0.70 0.79 0.73 0.72 0.52 0.45 1.03 0.74 0.83 1.57 1.59 1.50 1.47 1.40 1.26 1.13 1.02 1.02 1.02 1.01 0.99 1.00 1.05 1.10 1.05

GFSFLT2_prec_pwat_147.txt.gz
Precipitable_Water
1.44 1.56 1.52 1.34 1.23 1.18 1.12 1.06 1.02 1.01 0.99 1.00 1.06 1.11 1.12 1.12 1.15 1.17 1.28 1.26 1.26 1.27 1.34 1.38 1.47 1.56 1.63 1.71 1.73 1.67 1.62 1.61
1.33 1.53 1.64 1.44 1.30 1.25 1.17 1.06 0.99 0.98 0.98 0.99 1.03 1.10 1.11 1.14 1.17 1.18 1.25 1.24 1.26 1.24 1.29 1.34 1.41 1.53 1.65 1.68 1.70 1.64 1.54 1.49
1.37 1.43 1.52 1.69 1.54 1.34 1.26 1.15 1.04 0.99 0.97 0.97 1.01 1.07 1.11 1.15 1.17 1.16 1.19 1.20 1.23 1.25 1.26 1.34 1.38 1.50 1.59 1.65 1.56 1.54 1.54 1.62
0.57 0.92 1.51 1.59 1.69 1.56 1.37 1.29 1.15 1.08 1.01 0.98 0.98 1.04 1.11 1.12 1.14 1.15 1.16 1.18 1.18 1.22 1.24 1.31 1.38 1.48 1.52 1.59 1.58 1.50 1.58 1.72
0.48 0.62 0.78 1.08 1.50 1.75 1.55 1.35 1.24 1.13 1.08 1.03 0.98 0.99 1.07 1.15 1.14 1.14 1.13 1.17 1.15 1.17 1.19 1.23 1.28 1.42 1.47 1.52 1.54 1.51 1.54 1.60
0.53 0.60 0.72 0.82 0.93 1.25 1.69 1.59 1.38 1.23 1.16 1.12 1.05 0.97 0.98 1.10 1.11 1.10 1.07 1.11 1.10 1.11 1.11 1.15 1.21 1.40 1.49 1.50 1.53 1.50 1.53 1.51
0.54 0.54 0.53 0.69 0.78 0.86 1.02 1.29 1.59 1.39 1.29 1.24 1.19 1.04 0.99 1.06 1.09 1.13 1.07 1.07 1.06 1.05 1.08 1.10 1.13 1.33 1.48 1.52 1.48 1.53 1.52 1.49
0.52 0.52 0.54 0.52 0.57 0.73 0.81 0.92 1.16 1.53 1.46 1.32 1.29 1.22 1.09 1.05 1.07 1.10 1.11 1.11 0.99 1.03 1.04 1.09 1.12 1.30 1.45 1.58 1.50 1.49 1.45 1.50
0.49 0.48 0.49 0.48 0.48 0.48 0.58 0.71 0.88 1.05 1.39 1.54 1.34 1.30 1.22 1.12 1.06 1.08 1.12 1.17 1.06 1.11 1.12 1.18 1.17 1.27 1.35 1.55 1.52 1.45 1.45 1.49
0.44 0.45 0.43 0.42 0.42 0.44 0.43 0.44 0.62 0.83 1.00 1.38 1.55 1.36 1.28 1.22 1.12 1.02 1.11 1.17 1.10 1.15 1.11 1.13 1.15 1.21 1.29 1.42 1.51 1.49 1.45 1.43
0.40 0.41 0.41 0.41 0.42 0.43 0.43 0.42 0.42 0.56 0.77 0.93 1.26 1.60 1.38 1.24 1.21 1.07 1.05 1.14 1.11 1.10 1.09 1.06 1.05 1.17 1.24 1.32 1.42 1.47 1.45 1.38
0.40 0.41 0.41 0.41 0.43 0.43 0.42 0.42 0.43 0.44 0.52 0.71 0.88 1.26 1.62 1.34 1.20 1.20 1.16 1.06 1.09 1.11 1.05 1.08 0.99 1.09 1.17 1.20 1.30 1.42 1.38 1.39
0.39 0.40 0.42 0.43 0.41 0.41 0.41 0.41 0.42 0.44 0.47 0.51 0.73 0.89 1.34 1.60 1.24 1.17 1.23 1.01 1.03 1.09 1.07 1.03 1.01 1.10 1.10 1.12 1.18 1.27 1.26 1.28
0.41 0.43 0.43 0.43 0.45 0.45 0.46 0.47 0.49 0.50 0.50 0.52 0.53 0.72 0.98 1.39 1.47 1.20 1.19 1.11 0.99 1.08 1.05 1.01 1.02 1.09 0.97 0.95 0.87 0.97 1.10 1.15
0.41 0.43 0.45 0.47 0.49 0.50 0.53 0.54 0.55 0.53 0.54 0.53 0.62 0.59 0.71 1.07 1.47 1.49 1.29 1.22 1.00 1.01 1.04 0.97 0.90 1.04 1.03 0.89 0.76 0.68 0.84 1.00
0.43 0.45 0.47 0.49 0.52 0.53 0.54 0.52 0.51 0.57 0.58 0.60 0.61 0.64 0.55 0.74 1.20 1.51 1.50 1.31 1.13 0.99 1.07 0.98 0.98 0.90 1.02 1.03 0.94 0.85 0.71 0.70
0.44 0.46 0.50 0.54 0.57 0.60 0.58 0.56 0.57 0.58 0.61 0.61 0.60 0.69 0.64 0.57 0.75 1.15 1.52 1.47 1.22 1.12 1.06 1.05 1.00 0.92 0.88 0.92 0.91 0.89 0.88 0.74
0.45 0.48 0.54 0.59 0.62 0.66 0.61 0.55 0.56 0.56 0.56 0.57 0.63 0.69 0.73 0.63 0.68 0.87 0.88 1.45 1.39 1.19 1.07 1.07 1.00 0.97 0.95 0.91 0.88 0.78 0.80 0.79
0.45 0.51 0.57 0.62 0.66 0.65 0.59 0.58 0.58 0.55 0.54 0.59 0.63 0.68 0.74 0.72 0.70 0.78 0.70 0.95 1.56 1.35 1.15 1.09 1.07 0.99 0.94 0.85 0.93 0.91 0.93 0.93
0.47 0.54 0.58 0.64 0.68 0.62 0.63 0.67 0.59 0.60 0.64 0.66 0.74 0.70 0.77 0.83 0.84 0.90 0.90 0.73 1.05 1.40 1.27 1.19 1.08 1.07 0.99 0.91 0.91 0.95 0.99 0.98

GFSFLT2_prec_pwat_150.txt.gz
Precipitable_Water
1.38 1.44 1.58 1.53 1.46 1.32 1.27 1.21 1.14 1.06 1.03 1.03 1.08 1.09 1.09 1.10 1.09 1.11 1.12 1.20 1.23 1.25 1.29 1.35 1.38 1.50 1.56 1.64 1.70 1.69 1.67 1.62
1.33 1.48 1.47 1.57 1.49 1.36 1.28 1.23 1.16 1.09 1.06 1.05 1.04 1.07 1.09 1.09 1.08 1.14 1.14 1.19 1.21 1.19 1.23 1.32 1.39 1.46 1.57 1.63 1.68 1.62 1.60 1.52
0.63 0.98 1.44 1.59 1.70 1.68 1.52 1.34 1.25 1.17 1.12 1.12 1.09 1.05 1.05 1.09 1.12 1.15 1.17 1.20 1.21 1.17 1.20 1.23 1.33 1.42 1.52 1.60 1.64 1.57 1.49 1.46
0.58 0.71 0.85 1.09 1.26 1.58 1.75 1.68 1.48 1.33 1.17 1.10 1.11 1.11 1.08 1.05 1.11 1.16 1.19 1.18 1.20 1.18 1.18 1.20 1.29 1.39 1.47 1.59 1.59 1.53 1.45 1.42
0.50 0.57 0.65 0.73 0.86 1.05 1.28 1.48 1.57 1.52 1.39 1.22 1.09 1.13 1.15 1.13 1.08 1.11 1.16 1.18 1.16 1.16 1.17 1.17 1.21 1.27 1.36 1.48 1.54 1.50 1.45 1.49
0.49 0.50 0.52 0.57 0.66 0.77 0.86 1.05 1.31 1.31 1.37 1.46 1.29 1.06 1.09 1.11 1.11 1.07 1.09 1.16 1.13 1.13 1.12 1.14 1.18 1.21 1.29 1.45 1.50 1.49 1.43 1.44
0.48 0.49 0.47 0.47 0.52 0.58 0.64 0.73 0.85 1.03 1.26 1.32 1.51 1.33 1.10 1.10 1.12 1.15 1.10 1.15 1.14 1.12 1.10 1.09 1.13 1.18 1.27 1.46 1.50 1.45 1.41 1.38
0.46 0.46 0.46 0.45 0.44 0.45 0.48 0.55 0.61 0.74 0.89 1.17 1.38 1.51 1.36 1.24 1.12 1.15 1.15 1.12 1.14 1.12 1.08 1.07 1.07 1.12 1.23 1.43 1.51 1.47 1.45 1.34
0.42 0.39 0.38 0.36 0.36 0.37 0.38 0.40 0.42 0.48 0.63 0.79 1.08 1.42 1.51 1.42 1.28 1.17 1.17 1.15 1.11 1.16 1.09 1.13 1.13 1.13 1.21 1.41 1.53 1.50 1.49 1.41
0.35 0.37 0.38 0.38 0.38 0.38 0.38 0.38 0.39 0.39 0.41 0.55 0.71 0.98 1.32 1.51 1.42 1.27 1.21 1.21 1.17 1.16 1.11 1.11 1.13 1.12 1.20 1.36 1.46 1.55 1.48 1.44
0.34 0.36 0.36 0.37 0.38 0.39 0.39 0.39 0.38 0.40 0.42 0.43 0.48 0.65 0.90 1.27 1.48 1.42 1.31 1.19 1.20 1.17 1.13 1.13 1.12 1.12 1.22 1.32 1.41 1.46 1.46 1.46
0.36 0.36 0.36 0.37 0.37 0.38 0.39 0.38 0.39 0.39 0.41 0.44 0.46 0.44 0.58 0.80 1.20 1.47 1.46 1.27 1.17 1.17 1.14 1.14 1.16 1.15 1.19 1.28 1.36 1.39 1.44 1.43
0.32 0.33 0.36 0.37 0.36 0.35 0.35 0.35 0.37 0.40 0.41 0.44 0.47 0.49 0.48 0.58 0.73 1.23 1.44 1.40 1.19 1.17 1.18 1.11 1.12 1.21 1.09 1.21 1.29 1.35 1.37 1.37
0.33 0.34 0.38 0.40 0.39 0.39 0.41 0.42 0.43 0.45 0.47 0.48 0.50 0.53 0.56 0.55 0.60 0.78 1.30 1.45 1.37 1.19 1.15 1.11 1.11 1.20 1.01 1.07 0.96 1.12 1.26 1.35
0.33 0.35 0.38 0.41 0.42 0.43 0.45 0.48 0.50 0.50 0.52 0.51 0.53 0.57 0.60 0.59 0.61 0.67 0.89 1.33 1.52 1.26 1.24 1.12 1.01 1.12 1.14 0.96 0.86 0.84 1.01 1.20
0.35 0.36 0.39 0.42 0.44 0.44 0.45 0.47 0.47 0.55 0.54 0.55 0.55 0.60 0.61 0.63 0.62 0.65 0.67 1.10 1.33 1.51 1.24 1.19 1.11 0.98 1.11 1.12 1.06 0.95 0.81 0.84
0.33 0.36 0.40 0.44 0.46 0.50 0.52 0.55 0.60 0.56 0.54 0.53 0.54 0.55 0.58 0.64 0.67 0.65 0.65 0.85 1.11 1.36 1.45 1.28 1.19 1.10 0.99 1.05 1.01 1.00 1.00 0.86
0.30 0.34 0.40 0.46 0.50 0.54 0.58 0.60 0.54 0.51 0.54 0.53 0.51 0.53 0.55 0.60 0.67 0.70 0.67 0.65 0.92 1.29 1.44 1.40 1.19 1.14 1.12 1.04 1.00 0.89 0.84 0.83
0.29 0.33 0.38 0.46 0.51 0.56 0.62 0.68 0.58 0.58 0.62 0.61 0.57 0.55 0.57 0.60 0.70 0.68 0.69 0.65 0.72 0.97 1.25 1.54 1.38 1.20 1.16 1.04 1.04 0.98 0.97 0.93
0.31 0.33 0.36 0.43 0.50 0.55 0.62 0.70 0.69 0.71 0.75 0.73 0.66 0.63 0.66 0.72 0.73 0.73 0.72 0.72 0.71 0.71 0.91 1.03 1.27 1.31 1.22 1.18 1.04 1.01 1.02 0.97

GFSFLT2_prec_pwat_153.txt.gz
Precipitable_Water
1.22 1.37 1.43 1.50 1.55 1.54 1.50 1.40 1.31 1.25 1.18 1.17 1.18 1.20 1.19 1.15 1.15 1.13 1.13 1.13 1.18 1.21 1.20 1.22 1.28 1.37 1.49 1.52 1.61 1.61 1.64 1.64
0.83 0.95 1.10 1.27 1.42 1.61 1.60 1.52 1.43 1.36 1.21 1.13 1.14 1.18 1.20 1.21 1.17 1.14 1.15 1.15 1.17 1.21 1.20 1.21 1.24 1.33 1.41 1.53 1.58 1.69 1.61 1.60
0.58 0.70 0.84 1.00 1.15 1.32 1.39 1.47 1.50 1.46 1.44 1.38 1.25 1.15 1.19 1.22 1.23 1.19 1.17 1.18 1.17 1.20 1.20 1.18 1.22 1.30 1.37 1.52 1.59 1.65 1.55 1.51
0.48 0.50 0.59 0.68 0.82 1.00 1.12 1.26 1.42 1.40 1.36 1.40 1.39 1.32 1.22 1.20 1.25 1.25 1.22 1.20 1.18 1.17 1.19 1.17 1.19 1.23 1.32 1.43 1.50 1.56 1.52 1.45
0.47 0.48 0.51 0.52 0.58 0.66 0.74 0.88 1.02 1.18 1.27 1.30 1.23 1.38 1.35 1.28 1.21 1.24 1.26 1.26 1.22 1.18 1.15 1.15 1.14 1.18 1.22 1.31 1.43 1.53 1.50 1.46
0.47 0.48 0.46 0.46 0.47 0.47 0.50 0.56 0.67 0.78 0.90 1.08 1.21 1.23 1.34 1.36 1.26 1.20 1.24 1.27 1.22 1.21 1.17 1.13 1.13 1.16 1.19 1.22 1.33 1.44 1.48 1.48
0.43 0.43 0.41 0.40 0.39 0.39 0.39 0.41 0.46 0.51 0.63 0.77 0.88 1.09 1.22 1.32 1.42 1.35 1.19 1.25 1.26 1.21 1.19 1.15 1.11 1.11 1.16 1.17 1.27 1.43 1.50 1.47
0.42 0.38 0.35 0.34 0.33 0.33 0.35 0.37 0.37 0.38 0.41 0.47 0.64 0.80 1.00 1.33 1.37 1.42 1.39 1.27 1.26 1.28 1.22 1.17 1.13 1.11 1.10 1.15 1.19 1.41 1.49 1.46
0.34 0.32 0.35 0.33 0.33 0.33 0.34 0.35 0.36 0.35 0.36 0.38 0.40 0.47 0.68 0.87 1.19 1.44 1.45 1.46 1.35 1.29 1.29 1.24 1.18 1.16 1.08 1.12 1.17 1.39 1.48 1.46
0.32 0.34 0.34 0.34 0.33 0.34 0.35 0.35 0.36 0.36 0.37 0.38 0.39 0.41 0.42 0.51 0.72 1.13 1.48 1.50 1.47 1.34 1.24 1.18 1.18 1.14 1.08 1.07 1.14 1.36 1.45 1.46
0.30 0.33 0.32 0.33 0.33 0.33 0.35 0.36 0.37 0.38 0.39 0.40 0.41 0.42 0.44 0.43 0.45 0.60 1.08 1.49 1.51 1.42 1.30 1.20 1.15 1.13 1.12 1.12 1.16 1.32 1.44 1.45
0.33 0.35 0.35 0.35 0.34 0.33 0.34 0.36 0.38 0.40 0.41 0.43 0.44 0.45 0.47 0.46 0.46 0.46 0.59 0.99 1.38 1.48 1.37 1.27 1.24 1.16 1.14 1.14 1.18 1.30 1.41 1.48
0.35 0.35 0.36 0.36 0.33 0.30 0.31 0.31 0.35 0.39 0.43 0.44 0.46 0.49 0.52 0.52 0.48 0.50 0.50 0.58 1.01 1.37 1.44 1.31 1.17 1.27 1.16 1.15 1.17 1.29 1.32 1.40
0.35 0.36 0.36 0.37 0.35 0.36 0.37 0.37 0.38 0.41 0.45 0.49 0.51 0.52 0.54 0.55 0.54 0.50 0.52 0.53 0.64 1.04 1.31 1.36 1.24 1.24 1.11 1.09 0.93 1.10 1.23 1.31
0.34 0.36 0.37 0.37 0.37 0.38 0.38 0.40 0.40 0.41 0.46 0.48 0.53 0.54 0.55 0.55 0.56 0.54 0.53 0.55 0.53 0.74 1.10 1.36 1.26 1.18 1.24 1.08 0.90 0.78 1.01 1.20
0.36 0.35 0.37 0.37 0.38 0.37 0.37 0.36 0.34 0.41 0.47 0.53 0.53 0.54 0.56 0.57 0.55 0.56 0.56 0.58 0.57 0.60 0.90 1.15 1.39 1.19 1.18 1.26 1.18 1.02 0.85 0.84
0.36 0.36 0.35 0.36 0.37 0.37 0.38 0.37 0.40 0.43 0.48 0.55 0.59 0.56 0.63 0.64 0.58 0.56 0.56 0.58 0.63 0.62 0.68 0.95 1.32 1.36 1.18 1.10 1.15 1.11 1.00 0.90
0.35 0.35 0.33 0.34 0.34 0.35 0.35 0.37 0.41 0.42 0.47 0.56 0.63 0.58 0.62 0.70 0.70 0.63 0.59 0.61 0.62 0.66 0.66 0.84 0.97 1.48 1.34 1.24 1.08 1.00 0.91 0.82
0.35 0.34 0.32 0.31 0.31 0.32 0.35 0.38 0.43 0.45 0.49 0.59 0.63 0.61 0.67 0.72 0.71 0.65 0.64 0.66 0.69 0.71 0.72 0.77 0.88 1.01 1.43 1.27 1.19 1.07 1.10 0.99
0.34 0.32 0.29 0.29 0.30 0.31 0.36 0.40 0.42 0.48 0.54 0.64 0.64 0.63 0.73 0.75 0.69 0.65 0.66 0.71 0.73 0.72 0.73 0.77 0.90 1.01 1.26 1.41 1.36 1.21 1.13 1.08

GFSFLT2_prec_pwat_159.txt.gz
Precipitable_Water
0.72 0.74 0.80 0.89 1.04 1.19 1.31 1.39 1.39 1.39 1.38 1.33 1.26 1.21 1.23 1.33 1.41 1.36 1.34 1.33 1.28 1.23 1.20 1.21 1.23 1.23 1.22 1.26 1.36 1.45 1.54 1.60
0.64 0.64 0.70 0.78 0.80 0.81 0.97 1.14 1.27 1.27 1.27 1.28 1.27 1.25 1.21 1.21 1.31 1.40 1.39 1.34 1.32 1.30 1.25 1.22 1.22 1.21 1.20 1.23 1.30 1.38 1.52 1.57
0.48 0.48 0.51 0.54 0.52 0.54 0.57 0.65 0.72 0.90 1.07 1.17 1.23 1.28 1.31 1.26 1.20 1.23 1.32 1.38 1.33 1.31 1.32 1.27 1.24 1.21 1.19 1.18 1.24 1.33 1.44 1.50
0.44 0.47 0.46 0.46 0.44 0.45 0.45 0.47 0.48 0.49 0.54 0.65 0.81 1.00 1.17 1.24 1.28 1.23 1.18 1.25 1.34 1.35 1.33 1.33 1.28 1.25 1.21 1.19 1.17 1.24 1.32 1.41
0.48 0.48 0.46 0.40 0.39 0.39 0.38 0.39 0.39 0.40 0.41 0.41 0.43 0.49 0.63 0.90 1.18 1.26 1.24 1.22 1.21 1.31 1.35 1.36 1.31 1.26 1.21 1.17 1.17 1.17 1.23 1.33
0.48 0.48 0.41 0.42 0.41 0.39 0.38 0.35 0.34 0.33 0.34 0.36 0.35 0.36 0.38 0.41 0.53 0.87 1.22 1.28 1.20 1.21 1.27 1.31 1.32 1.30 1.24 1.19 1.16 1.14 1.16 1.24
0.46 0.46 0.42 0.41 0.40 0.39 0.37 0.35 0.33 0.33 0.34 0.36 0.36 0.34 0.34 0.35 0.37 0.40 0.56 0.94 1.26 1.22 1.21 1.22 1.27 1.29 1.25 1.21 1.18 1.14 1.16 1.19
0.45 0.44 0.43 0.41 0.38 0.39 0.38 0.36 0.35 0.34 0.35 0.36 0.38 0.38 0.38 0.37 0.37 0.36 0.37 0.46 0.76 1.07 1.24 1.23 1.21 1.23 1.24 1.22 1.19 1.19 1.18 1.17
0.42 0.42 0.43 0.41 0.40 0.40 0.39 0.38 0.37 0.35 0.36 0.38 0.39 0.40 0.40 0.40 0.39 0.39 0.40 0.40 0.40 0.60 0.89 1.21 1.23 1.25 1.17 1.25 1.25 1.22 1.18 1.17
0.41 0.42 0.42 0.40 0.39 0.39 0.39 0.40 0.39 0.39 0.38 0.40 0.41 0.43 0.44 0.44 0.43 0.43 0.45 0.44 0.43 0.41 0.52 0.79 1.07 1.16 1.19 1.23 1.28 1.26 1.19 1.17
0.38 0.40 0.38 0.38 0.39 0.39 0.40 0.40 0.39 0.40 0.40 0.40 0.43 0.44 0.47 0.46 0.46 0.47 0.50 0.47 0.47 0.46 0.43 0.52 0.73 0.97 1.13 1.22 1.29 1.28 1.23 1.20
0.37 0.37 0.38 0.39 0.39 0.39 0.39 0.38 0.39 0.40 0.39 0.40 0.43 0.44 0.46 0.46 0.47 0.48 0.49 0.46 0.47 0.49 0.48 0.47 0.55 0.72 1.02 1.14 1.25 1.29 1.30 1.20
0.35 0.35 0.37 0.38 0.36 0.34 0.34 0.32 0.35 0.37 0.39 0.39 0.42 0.44 0.47 0.47 0.48 0.49 0.51 0.48 0.46 0.46 0.49 0.50 0.47 0.67 0.78 0.98 1.18 1.26 1.29 1.24
0.36 0.36 0.37 0.38 0.37 0.37 0.36 0.35 0.36 0.37 0.38 0.37 0.41 0.44 0.46 0.47 0.48 0.49 0.52 0.52 0.52 0.50 0.46 0.45 0.51 0.56 0.64 0.76 0.78 1.06 1.15 1.24
0.36 0.37 0.38 0.38 0.38 0.37 0.35 0.35 0.35 0.35 0.35 0.35 0.38 0.42 0.46 0.48 0.50 0.51 0.53 0.56 0.56 0.56 0.56 0.50 0.45 0.54 0.65 0.71 0.67 0.80 1.01 1.12
0.37 0.37 0.37 0.37 0.38 0.35 0.33 0.31 0.30 0.34 0.34 0.35 0.37 0.42 0.44 0.46 0.48 0.49 0.52 0.57 0.59 0.62 0.64 0.60 0.57 0.47 0.58 0.70 0.91 0.88 1.07 0.88
0.37 0.38 0.38 0.38 0.37 0.37 0.35 0.33 0.35 0.36 0.34 0.32 0.34 0.37 0.43 0.46 0.48 0.50 0.53 0.55 0.60 0.66 0.68 0.66 0.65 0.57 0.54 0.58 0.62 0.79 0.93 1.07
0.39 0.39 0.38 0.38 0.38 0.38 0.36 0.35 0.34 0.32 0.31 0.30 0.32 0.35 0.38 0.43 0.47 0.50 0.51 0.55 0.60 0.67 0.70 0.70 0.67 0.67 0.64 0.61 0.60 0.57 0.69 0.90
0.41 0.40 0.38 0.39 0.39 0.37 0.35 0.35 0.35 0.32 0.30 0.30 0.31 0.33 0.36 0.39 0.43 0.46 0.49 0.53 0.61 0.67 0.71 0.70 0.69 0.67 0.67 0.64 0.65 0.64 0.67 0.84
0.42 0.41 0.40 0.40 0.38 0.35 0.35 0.36 0.34 0.33 0.33 0.33 0.33 0.34 0.36 0.39 0.41 0.44 0.49 0.53 0.55 0.65 0.69 0.71 0.71 0.73 0.72 0.70 0.68 0.65 0.69 0.70